Regional Weather Roundup
Issued by NWS Green Bay, WI

Home | Current Version | Previous Version | Text Only | Print | Product List | Glossary On
Versions: 1 2 3 4 5 6 7 8 9 10 11 12 13 14 15 16 17 18 19 20 21 22 23 24 25 26 27 28 29 30 31 32 33 34 35 36 37 38 39 40 41 42 43 44 45 46 47 48 49 50
000
ASUS43 KGRB 231800
RWRGRB

NORTH-CENTRAL AND NORTHEAST WISCONSIN REGIONAL WEATHER ROUNDUP
NATIONAL WEATHER SERVICE GREEN BAY WI
1200 PM CST FRI FEB 23 2018

WIZ005-009-010>012-018-019-231900-
NORTH CENTRAL WISCONSIN

CITY           SKY/WX    TMP DP  RH WIND       PRES   REMARKS
IRONWOOD       CLOUDY    28  24  85 W14       30.01R
MANITOWISH WTR NOT AVBL
ARBOR VITAE    NOT AVBL
EAGLE RIVER    CLOUDY    30  28  92 W14G22    29.97R
LAND O LAKES   NOT AVBL
RHINELANDER    CLOUDY    31  28  89 W17       30.00R
PHILLIPS       NOT AVBL
ANTIGO         NOT AVBL
TOMAHAWK       NOT AVBL
MERRILL        CLOUDY    32  30  92 W15G21    30.04R
$$

WIZ013-073-231900-
NORTHEAST WISCONSIN

CITY           SKY/WX    TMP DP  RH WIND       PRES   REMARKS
IRON MOUNTAIN  CLOUDY    35  30  82 W12       29.95R
MARINETTE      CLOUDY    38  35  89 W9G16     30.01S
$$

WIZ017-030-035>037-045-231900-
CENTRAL WISCONSIN

CITY           SKY/WX    TMP DP  RH WIND       PRES   REMARKS
MEDFORD        NOT AVBL
WAUSAU         CLOUDY    33  29  85 W14       30.03R
MOSINEE        CLOUDY    32  30  93 W15       30.06R
MARSHFIELD     CLOUDY    32  28  85 W20       30.06R
WISC RAPIDS    CLOUDY    34  27  75 W14G25    30.10R
STEVENS POINT  NOT AVBL
WAUPACA        NOT AVBL
SHAWANO        CLOUDY    38  33  80 W12       30.04R
CLINTONVILLE   CLOUDY    37  31  80 W12       30.06R
WAUTOMA        CLOUDY    36  31  82 W16       30.09S
$$

WIZ038-039-048-051-231900-
FOX VALLEY

CITY           SKY/WX    TMP DP  RH WIND       PRES   REMARKS
NWS GREEN BAY  CLOUDY    37  31  78 W13       30.05S
APPLETON       PTSUNNY   37  30  75 W17G23    30.05R
OSHKOSH        CLOUDY    38  32  79 W12G21    30.07S
FOND DU LAC    CLOUDY    37  31  78 W10       30.09S
$$

WIZ022-050-052-231900-
EAST CENTRAL WISCONSIN

CITY           SKY/WX    TMP DP  RH WIND       PRES   REMARKS
EPHRAIM        NOT AVBL
WASHINGTON ISL NOT AVBL
STURGEON BAY   CLOUDY    38  33  82 W15       30.02R
MANITOWOC      CLOUDY    38  33  82 W15G22    30.06S
SHEBOYGAN      CLOUDY    38  34  85 W16G25    30.08R
$$

LMZ563-521-522-541>543-231900-
LAKESHORE

STATION/POSITION TIME  TEMP    WIND        PRES    VSBY  WAVE
                       AIR SEA DIR/SP/G                  HT/PER
                 (UTC) (F)     (DEG/KT/KT) (MB)    (MI)  (FT/S)
SHEBOYGAN LKSHOR 1700   39     270/ 14/ 17 1018.8R
KEWAUNEE LKSHORE 1730   38     270/ 13/ 17 1016.6R
NORTHPORT PIER   1740   37                 1015.9R
SISTER BAY LKSHO 1720   40     230/ 15/ 17   N/A
MENOMINEE LKSHOR 1730   37     220/ 11/ 15 1015.9R
$$




USA.gov is the U.S. government's official web portal to all federal, state and local government web resources and services.